Canyon City, OR

12:08 PM PDT on August 24, 2016 (GMT -0700)
Grant County Regional

Weather History for KGCD - August, 2013

Change the Weather History Date:

Sunday, August 11, 2013

  Actual Average (KBNO) Record (KBNO)
Temperature  
Mean Temperature 68 °F 66 °F  
Max Temperature 86 °F 86 °F 98 °F (1992)
Min Temperature 51 °F 46 °F 37 °F (1985)
Degree Days  
Heating Degree Days 0 2  
Month to date heating degree days 15  
Since 1 June heating degree days 291  
Since 1 July heating degree days 73  
Cooling Degree Days 3 3  
Month to date cooling degree days 39  
Year to date cooling degree days 171  
Since 1 June cooling degree days 168  
Growing Degree Days 18 (Base 50)    
Moisture  
Dew Point 47 °F    
Average Humidity 53    
Maximum Humidity 89    
Minimum Humidity 18    
Precipitation  
Precipitation 0.02 in 0.01 in 0.88 in (1965)
Month to date precipitation 0.13  
Year to date precipitation 6.75  
Sea Level Pressure  
Sea Level Pressure 30.06 in    
Wind  
Wind Speed 5 mph (WNW)    
Max Wind Speed 14 mph    
Max Gust Speed 18 mph    
Visibility 10 miles    
Events      
T = Trace of Precipitation, MM = Missing Value Source: NWS Daily Summary

Daily Weather History Graph

Daily Weather History Graph

Search for Another Location

Airport or City:

Trip Planner

Search our weather history database for the weather conditions in past years. The results will help you decide how hot, cold, wet, or windy it might be!

Date:

Astronomy

Aug. 11, 2013 Rise Set
Actual Time 5:54 AM PDT 8:06 PM PDT
Civil Twilight 5:22 AM PDT 8:38 PM PDT
Nautical Twilight 4:43 AM PDT 9:17 PM PDT
Astronomical Twilight 3:59 AM PDT 10:01 PM PDT
Moon 11:01 AM PDT (8/11) 10:09 PM PDT (8/11)
Length of Visible Light 15h 15m
Length of Day
14h 11m
Waxing Crescent, 23% of the Moon is Illuminated
Aug 11
Waxing Crescent
Aug 14
First Quarter
Aug 20
Full
Aug 28
Last Quarter
Sep 5
New

Hourly Weather History & Observations

Time (PDT) Temp. Dew Point Humidity Pressure Visibility Wind Dir Wind Speed Gust Speed Precip Events Conditions
12:15 AM 60.1 °F 53.1 °F 78% 30.07 in 10.0 mi WSW 8.1 mph - N/A   Clear
12:35 AM 59.9 °F 52.7 °F 77% 30.08 in 10.0 mi WSW 6.9 mph - N/A   Clear
12:55 AM 59.2 °F 52.2 °F 78% 30.08 in 10.0 mi WSW 6.9 mph - N/A   Clear
1:15 AM 58.8 °F 52.2 °F 79% 30.09 in 10.0 mi WSW 5.8 mph - N/A   Clear
1:35 AM 58.1 °F 51.8 °F 80% 30.09 in 10.0 mi SW 4.6 mph - N/A   Clear
1:55 AM 57.0 °F 51.3 °F 81% 30.09 in 10.0 mi Calm Calm - N/A   Clear
2:15 AM 58.1 °F 52.0 °F 80% 30.09 in 10.0 mi Calm Calm - N/A   Clear
2:35 AM 57.7 °F 51.8 °F 81% 30.09 in 10.0 mi Calm Calm - N/A   Clear
2:55 AM 57.4 °F 52.0 °F 82% 30.09 in 10.0 mi Calm Calm - N/A   Clear
3:15 AM 56.1 °F 51.1 °F 83% 30.10 in 10.0 mi ESE 5.8 mph - N/A   Clear
3:35 AM 55.6 °F 51.1 °F 85% 30.09 in 10.0 mi East 3.5 mph - N/A   Clear
3:55 AM 55.0 °F 50.5 °F 85% 30.10 in 10.0 mi Calm Calm - N/A   Clear
4:15 AM 55.6 °F 50.5 °F 83% 30.10 in 10.0 mi Calm Calm - N/A   Clear
4:35 AM 55.4 °F 50.5 °F 84% 30.10 in 10.0 mi Calm Calm - N/A   Clear
4:55 AM 55.6 °F 50.9 °F 84% 30.10 in 10.0 mi Calm Calm - N/A   Clear
5:15 AM 54.1 °F 50.4 °F 87% 30.11 in 10.0 mi Calm Calm - N/A   Clear
5:35 AM 54.1 °F 51.1 °F 89% 30.11 in 10.0 mi Calm Calm - N/A   Clear
5:55 AM 51.8 °F 48.2 °F 88% 30.11 in 10.0 mi Calm Calm - N/A   Clear
6:15 AM 54.1 °F 49.6 °F 85% 30.11 in 10.0 mi ESE 3.5 mph - N/A   Clear
6:35 AM 52.2 °F 48.4 °F 87% 30.12 in 10.0 mi ESE 5.8 mph - N/A   Clear
6:55 AM 52.9 °F 48.7 °F 86% 30.11 in 10.0 mi SE 5.8 mph - N/A   Clear
7:15 AM 55.6 °F 49.6 °F 80% 30.12 in 10.0 mi ESE 6.9 mph - N/A   Clear
7:35 AM 55.9 °F 49.8 °F 80% 30.12 in 10.0 mi ESE 6.9 mph - N/A   Clear
7:55 AM 56.5 °F 50.2 °F 79% 30.12 in 10.0 mi East 6.9 mph - N/A   Clear
8:15 AM 58.1 °F 50.2 °F 75% 30.12 in 10.0 mi East 6.9 mph - N/A   Clear
8:35 AM 59.9 °F 50.9 °F 72% 30.11 in 10.0 mi East 4.6 mph - N/A   Clear
8:55 AM 61.5 °F 51.1 °F 69% 30.11 in 10.0 mi Calm Calm - N/A   Clear
9:15 AM 62.8 °F 51.4 °F 66% 30.10 in 10.0 mi Calm Calm - N/A   Clear
9:35 AM 65.3 °F 51.8 °F 62% 30.10 in 10.0 mi Calm Calm - N/A   Clear
9:55 AM 66.9 °F 51.8 °F 58% 30.10 in 10.0 mi Calm Calm - N/A   Clear
10:15 AM 69.1 °F 51.4 °F 53% 30.10 in 10.0 mi NNW 4.6 mph - N/A   Clear
10:35 AM 70.9 °F 50.4 °F 48% 30.09 in 10.0 mi NW 4.6 mph - N/A   Clear
10:55 AM 71.4 °F 49.5 °F 46% 30.09 in 10.0 mi WNW 9.2 mph - N/A   Clear
11:15 AM 73.4 °F 49.8 °F 43% 30.08 in 10.0 mi West 9.2 mph - N/A   Clear
11:35 AM 73.4 °F 47.5 °F 40% 30.07 in 10.0 mi WNW 9.2 mph - N/A   Clear
11:55 AM 75.4 °F 47.3 °F 37% 30.06 in 10.0 mi West 6.9 mph - N/A   Clear
12:15 PM 76.5 °F 46.9 °F 35% 30.06 in 10.0 mi West 8.1 mph - N/A   Clear
12:35 PM 78.1 °F 47.8 °F 34% 30.06 in 10.0 mi WNW 10.4 mph - N/A   Clear
12:55 PM 79.3 °F 47.8 °F 33% 30.05 in 10.0 mi West 10.4 mph - N/A   Clear
1:15 PM 79.5 °F 46.4 °F 31% 30.05 in 10.0 mi West 6.9 mph - N/A   Clear
1:35 PM 81.3 °F 44.8 °F 28% 30.04 in 10.0 mi WNW 12.7 mph 18.4 mph N/A   Clear
1:55 PM 81.7 °F 44.4 °F 27% 30.03 in 10.0 mi WSW 8.1 mph - N/A   Clear
2:15 PM 82.6 °F 43.7 °F 25% 30.03 in 10.0 mi NW 6.9 mph - N/A   Clear
2:35 PM 84.7 °F 43.9 °F 24% 30.02 in 10.0 mi WNW 4.6 mph - N/A   Clear
2:55 PM 84.0 °F 43.3 °F 24% 30.01 in 10.0 mi WNW 9.2 mph - N/A   Clear
3:15 PM 84.0 °F 42.4 °F 23% 30.01 in 10.0 mi West 6.9 mph - N/A   Clear
3:35 PM 82.4 °F 42.1 °F 24% 30.00 in 10.0 mi WNW 9.2 mph - N/A   Clear
3:55 PM 84.9 °F 41.4 °F 21% 29.99 in 10.0 mi WNW 9.2 mph - N/A   Clear
4:15 PM 84.9 °F 40.6 °F 21% 29.98 in 10.0 mi WNW 9.2 mph - N/A   Clear
4:35 PM 85.8 °F 39.9 °F 20% 29.98 in 10.0 mi West 12.7 mph 18.4 mph N/A   Clear
4:55 PM 83.3 °F 38.8 °F 21% 29.98 in 10.0 mi West 12.7 mph - N/A   Clear
5:15 PM 85.1 °F 37.2 °F 18% 29.98 in 10.0 mi WNW 13.8 mph - N/A   Clear
5:35 PM 85.1 °F 36.7 °F 18% 29.97 in 10.0 mi West 12.7 mph 17.3 mph N/A   Clear
5:55 PM 84.4 °F 36.0 °F 18% 29.98 in 10.0 mi West 11.5 mph 17.3 mph N/A   Clear
6:15 PM 83.5 °F 37.2 °F 19% 29.97 in 10.0 mi West 12.7 mph 17.3 mph N/A   Clear
6:35 PM 82.9 °F 37.4 °F 20% 29.97 in 10.0 mi West 11.5 mph 18.4 mph N/A   Clear
6:55 PM 81.9 °F 37.6 °F 21% 29.98 in 10.0 mi West 10.4 mph - N/A   Clear
7:15 PM 79.9 °F 42.8 °F 27% 29.98 in 10.0 mi NW 9.2 mph - N/A   Clear
7:35 PM 78.8 °F 42.4 °F 27% 29.99 in 10.0 mi NNW 8.1 mph - N/A   Clear
7:55 PM 76.5 °F 42.1 °F 29% 29.99 in 10.0 mi North 5.8 mph - N/A   Clear
8:15 PM 75.2 °F 43.9 °F 33% 30.00 in 10.0 mi North 5.8 mph - N/A   Clear
8:35 PM 73.8 °F 46.0 °F 37% 30.01 in 10.0 mi Calm Calm - N/A   Clear
8:55 PM 74.1 °F 46.2 °F 37% 30.01 in 10.0 mi Calm Calm - N/A   Clear